Weather History for Moron de la Frontera, Spain

Change the Weather History Date:

Tuesday, August 21, 2012

  Actual Average Record
Temperature  
Mean Temperature 93 °F -  
Max Temperature 109 °F 87 °F 109 °F (2012)
Min Temperature 77 °F 63 °F 59 °F (1996)
Cooling Degree Days 28    
Growing Degree Days 43 (Base 50)    
Moisture  
Dew Point 66 °F    
Average Humidity 44    
Maximum Humidity 65    
Minimum Humidity 25    
Precipitation  
Precipitation 0.00 in - - ()
Sea Level Pressure  
Sea Level Pressure 30.01 in    
Wind  
Wind Speed 4 mph ()    
Max Wind Speed 12 mph    
Max Gust Speed -    
Averages and records for this station are not official NWS values.
T = Trace of Precipitation, MM = Missing Value Source: Averaged Metar Reports

Daily Weather History Graph

Daily Weather History Graph

Search for Another Location

Airport:

Trip Planner

Search our weather history database for the weather conditions in past years. The results will help you decide how hot, cold, wet, or windy it might be!

Date:

Astronomy

Aug. 21, 2012 Rise Set
Actual Time 7:44 AM CEST 9:06 PM CEST
Civil Twilight 7:16 AM CEST 9:33 PM CEST
Nautical Twilight 6:44 AM CEST 10:05 PM CEST
Astronomical Twilight 6:10 AM CEST 10:39 PM CEST
Moon 11:50 AM CEST (8/21) 11:05 PM CEST (8/21)
Length of Visible Light 14h 16m
Length of Day
13h 21m
Waxing Crescent, 17% of the Moon is Illuminated
Aug 21
Waxing Crescent
Aug 24
First Quarter
Aug 31
Full
Sep 8
Last Quarter
Sep 16
New

Hourly Weather History & Observations

Time (CEST) Temp. Heat Index Dew Point Humidity Pressure Visibility Wind Dir Wind Speed Gust Speed Precip Events Conditions
12:00 AM 86.0 °F 89.4 °F 68.0 °F 55% 30.06 in - Variable 2.3 mph - N/A   Clear
1:00 AM 84.2 °F 87.3 °F 68.0 °F 58% 30.06 in - SSW 4.6 mph - N/A   Clear
2:00 AM 84.2 °F 87.3 °F 68.0 °F 58% 30.06 in - South 5.8 mph - N/A   Clear
3:00 AM 82.4 °F 84.6 °F 66.2 °F 58% 30.06 in - South 4.6 mph - N/A   Clear
4:00 AM 82.4 °F 83.9 °F 64.4 °F 54% 30.04 in - SSE 4.6 mph - N/A   Clear
5:00 AM 80.6 °F 82.7 °F 66.2 °F 61% 30.04 in - Variable 2.3 mph - N/A   Clear
7:00 AM 78.8 °F - 64.4 °F 61% 30.01 in - Calm Calm - N/A   Clear
8:00 AM 77.0 °F - 64.4 °F 65% 30.04 in - Variable 2.3 mph - N/A   Clear
9:00 AM 80.6 °F 82.3 °F 64.4 °F 58% 30.04 in - Calm Calm - N/A   Clear
10:00 AM 86.0 °F 88.2 °F 66.2 °F 51% 30.04 in - North 1.2 mph - N/A   Clear
11:00 AM 91.4 °F 94.0 °F 66.2 °F 43% 30.04 in - NNW 5.8 mph - N/A   Clear
12:00 PM 95.0 °F 98.5 °F 66.2 °F 39% 30.06 in - Variable 2.3 mph - N/A   Clear
1:00 PM 98.6 °F 104.1 °F 68.0 °F 37% 30.04 in - Calm Calm - N/A   Clear
2:00 PM 102.2 °F 108.4 °F 68.0 °F 33% 30.04 in - Variable 1.2 mph - N/A   Clear
3:00 PM 107.6 °F 115.0 °F 68.0 °F 28% 30.01 in - Variable 1.2 mph - N/A   Clear
4:00 PM 107.6 °F 115.0 °F 68.0 °F 28% 29.98 in - West 4.6 mph - N/A   Clear
5:00 PM 107.6 °F 115.0 °F 68.0 °F 28% 29.95 in - West 6.9 mph - N/A   Clear
6:00 PM 109.4 °F 117.7 °F 68.0 °F 27% 29.95 in - West 6.9 mph - N/A   Clear
7:00 PM 107.6 °F 112.3 °F 64.4 °F 25% 29.95 in - West 6.9 mph - N/A   Clear
8:00 PM 105.8 °F 109.8 °F 64.4 °F 26% 29.92 in - WNW 8.1 mph - N/A   Clear
9:00 PM 98.6 °F 102.8 °F 66.2 °F 35% 29.92 in - West 10.4 mph - N/A   Clear
10:00 PM 91.4 °F 94.0 °F 66.2 °F 43% 29.95 in - West 11.5 mph - N/A   Clear
11:00 PM 86.0 °F 88.2 °F 66.2 °F 51% 29.98 in - SW 9.2 mph - N/A   Clear